When you browse on this site, cookies collect data to enhance your experience and personalize the content and advertising you see.
Visit our Privacy Policy to learn more. By continuing to use the site, you agree to this use of cookies and data.
  • In Czech Republic
  • List of Countries
  • For 7 days
  • Water Temperature
  • Satellite Maps
  • Weather Map
  • Weather Widgets
  • user-avatar
    Login

    Hourly Weather Bardilovo

    Today, 19 February, Tuesday

    Time Temperature Precipitation Wind Pressure Humidity
    00:00 -6°C° 0 mm 3 mps 751 mmHg 80%
    01:00 -6°C° 0 mm 3 mps 750 mmHg 79%
    02:00 -6°C° 0 mm 3 mps 750 mmHg 79%
    03:00 -6°C° 0 mm 3 mps 750 mmHg 79%
    04:00 -7°C° 0 mm 4 mps 749 mmHg 79%
    05:00 -7°C° 0 mm 4 mps 749 mmHg 79%
    06:00 -5°C° 0 mm 4 mps 748 mmHg 79%
    07:00 -5°C° 0 mm 4 mps 748 mmHg 80%
    08:00 -5°C° 0 mm 4 mps 748 mmHg 80%
    09:00 -4°C° 0 mm 4 mps 747 mmHg 79%
    10:00 -4°C° 0 mm 5 mps 746 mmHg 78%
    11:00 -1°C° 0 mm 5 mps 746 mmHg 77%
    12:00 0°C° 0 mm 5 mps 745 mmHg 78%
    13:00 0°C° 0 mm 5 mps 745 mmHg 80%
    14:00 +1°C° 0 mm 6 mps 744 mmHg 82%
    15:00 +1°C° 0 mm 6 mps 743 mmHg 83%
    16:00 0°C° 0 mm 5 mps 742 mmHg 85%
    17:00 0°C° 0 mm 5 mps 742 mmHg 87%
    18:00 0°C° 0 mm 5 mps 741 mmHg 88%
    19:00 0°C° 0 mm 5 mps 741 mmHg 89%
    20:00 0°C° 0 mm 5 mps 740 mmHg 90%
    21:00 0°C° 0 mm 5 mps 740 mmHg 89%
    22:00 0°C° 0 mm 5 mps 739 mmHg 89%
    23:00 -1°C° 0 mm 4 mps 739 mmHg 89%

    Tomorrow, 20 February, Wednesday

    Time Temperature Precipitation Wind Pressure Humidity
    00:00 -1°C° 0 mm 4 mps 738 mmHg 89%
    01:00 -1°C° 0 mm 4 mps 738 mmHg 90%
    02:00 -1°C° 0 mm 4 mps 738 mmHg 91%
    03:00 -1°C° 0.1 mm 4 mps 738 mmHg 91%
    04:00 +1°C° 0.1 mm 3 mps 738 mmHg 92%
    05:00 +1°C° 0.1 mm 3 mps 737 mmHg 93%
    06:00 0°C° 0 mm 4 mps 737 mmHg 93%
    07:00 0°C° 0 mm 4 mps 737 mmHg 92%
    08:00 0°C° 0 mm 4 mps 737 mmHg 92%
    09:00 0°C° 0 mm 4 mps 737 mmHg 91%
    10:00 0°C° 0 mm 4 mps 737 mmHg 90%
    11:00 +1°C° 0 mm 5 mps 737 mmHg 90%
    12:00 +1°C° 0.1 mm 5 mps 737 mmHg 87%
    13:00 +1°C° 0.1 mm 5 mps 737 mmHg 84%
    14:00 +1°C° 0.1 mm 5 mps 737 mmHg 81%
    15:00 +1°C° 0.1 mm 6 mps 737 mmHg 82%
    16:00 +1°C° 0.1 mm 6 mps 736 mmHg 84%
    17:00 -1°C° 0.1 mm 6 mps 736 mmHg 85%
    18:00 -1°C° 0.2 mm 6 mps 737 mmHg 82%
    19:00 -2°C° 0.2 mm 6 mps 737 mmHg 79%
    20:00 -2°C° 0.2 mm 7 mps 737 mmHg 76%
    21:00 -3°C° 0 mm 7 mps 738 mmHg 74%
    22:00 -4°C° 0 mm 6 mps 738 mmHg 73%
    23:00 -5°C° 0 mm 6 mps 738 mmHg 71%

    Day after tomorrow, 21 February, Thursday

    Time Temperature Precipitation Wind Pressure Humidity
    00:00 -6°C° 0 mm 7 mps 739 mmHg 71%
    01:00 -6°C° 0 mm 7 mps 739 mmHg 70%
    02:00 -6°C° 0 mm 7 mps 739 mmHg 70%
    03:00 -6°C° 0 mm 7 mps 740 mmHg 71%
    04:00 -6°C° 0 mm 7 mps 740 mmHg 71%
    05:00 -6°C° 0 mm 6 mps 740 mmHg 71%
    06:00 -6°C° 0 mm 6 mps 741 mmHg 71%
    07:00 -7°C° 0 mm 7 mps 741 mmHg 70%
    08:00 -7°C° 0 mm 7 mps 742 mmHg 70%
    09:00 -7°C° 0 mm 7 mps 742 mmHg 67%
    10:00 -7°C° 0 mm 7 mps 742 mmHg 65%
    11:00 -6°C° 0 mm 6 mps 743 mmHg 63%
    12:00 -6°C° 0 mm 6 mps 743 mmHg 62%
    13:00 -6°C° 0 mm 6 mps 744 mmHg 61%
    14:00 -6°C° 0 mm 6 mps 744 mmHg 60%
    15:00 -6°C° 0 mm 5 mps 744 mmHg 62%
    16:00 -6°C° 0 mm 5 mps 745 mmHg 63%
    17:00 -6°C° 0 mm 5 mps 745 mmHg 64%
    18:00 -7°C° 0 mm 5 mps 746 mmHg 65%
    19:00 -7°C° 0 mm 4 mps 746 mmHg 66%
    20:00 -7°C° 0 mm 4 mps 747 mmHg 67%
    21:00 -7°C° 0 mm 4 mps 747 mmHg 68%
    22:00 -7°C° 0 mm 4 mps 748 mmHg 69%
    23:00 -8°C° 0 mm 4 mps 748 mmHg 69%

    22 February, Friday

    Time Temperature Precipitation Wind Pressure Humidity
    00:00 -8°C° 0 mm 5 mps 749 mmHg 68%
    01:00 -8°C° 0 mm 5 mps 749 mmHg 68%
    02:00 -10°C° 0 mm 5 mps 750 mmHg 67%
    03:00 -10°C° 0 mm 5 mps 750 mmHg 66%
    04:00 -11°C° 0 mm 5 mps 751 mmHg 65%
    05:00 -12°C° 0 mm 6 mps 752 mmHg 65%
    06:00 -12°C° 0 mm 6 mps 753 mmHg 65%
    07:00 -12°C° 0 mm 6 mps 754 mmHg 64%
    08:00 -12°C° 0 mm 6 mps 755 mmHg 64%
    09:00 -12°C° 0 mm 6 mps 755 mmHg 61%
    10:00 -11°C° 0 mm 6 mps 756 mmHg 57%
    11:00 -10°C° 0 mm 6 mps 756 mmHg 54%
    12:00 -10°C° 0 mm 6 mps 757 mmHg 53%
    13:00 -8°C° 0 mm 5 mps 757 mmHg 52%
    14:00 -8°C° 0 mm 5 mps 757 mmHg 51%
    15:00 -8°C° 0 mm 5 mps 758 mmHg 51%
    16:00 -8°C° 0 mm 5 mps 758 mmHg 51%
    17:00 -8°C° 0 mm 4 mps 758 mmHg 52%
    18:00 -8°C° 0 mm 5 mps 758 mmHg 55%
    19:00 -10°C° 0 mm 5 mps 758 mmHg 58%
    20:00 -10°C° 0 mm 5 mps 758 mmHg 61%
    21:00 -10°C° 0 mm 5 mps 759 mmHg 65%
    22:00 -10°C° 0 mm 5 mps 759 mmHg 68%
    23:00 -10°C° 0 mm 5 mps 759 mmHg 72%

    23 February, Saturday

    Time Temperature Precipitation Wind Pressure Humidity
    00:00 -10°C° 0 mm 4 mps 759 mmHg 74%
    01:00 -10°C° 0 mm 4 mps 760 mmHg 77%
    02:00 -10°C° 0 mm 4 mps 760 mmHg 79%
    03:00 -9°C° 0 mm 3 mps 760 mmHg 79%
    04:00 -9°C° 0 mm 3 mps 760 mmHg 79%
    05:00 -10°C° 0 mm 3 mps 760 mmHg 79%
    06:00 -10°C° 0 mm 3 mps 760 mmHg 79%
    07:00 -10°C° 0 mm 3 mps 760 mmHg 79%
    08:00 -8°C° 0 mm 2 mps 760 mmHg 80%
    09:00 -8°C° 0 mm 2 mps 760 mmHg 76%
    10:00 -7°C° 0 mm 2 mps 760 mmHg 72%
    11:00 -6°C° 0 mm 2 mps 760 mmHg 68%
    12:00 -6°C° 0 mm 2 mps 759 mmHg 67%
    13:00 -6°C° 0 mm 2 mps 759 mmHg 67%
    14:00 -5°C° 0 mm 2 mps 759 mmHg 66%
    15:00 -5°C° 0.1 mm 2 mps 758 mmHg 70%
    16:00 -3°C° 0.1 mm 1 mps 758 mmHg 74%
    17:00 -3°C° 0.1 mm 1 mps 758 mmHg 77%
    18:00 -3°C° 0.1 mm 1 mps 758 mmHg 80%
    19:00 -4°C° 0.1 mm 1 mps 758 mmHg 82%
    20:00 -4°C° 0.1 mm 1 mps 758 mmHg 84%
    21:00 -4°C° 0 mm 1 mps 758 mmHg 85%
    22:00 -4°C° 0 mm 1 mps 758 mmHg 86%
    23:00 -4°C° 0 mm 1 mps 759 mmHg 87%

    24 February, Sunday

    Time Temperature Precipitation Wind Pressure Humidity
    00:00 -6°C° 0 mm 1 mps 759 mmHg 88%
    01:00 -6°C° 0 mm 1 mps 759 mmHg 89%
    02:00 -7°C° 0 mm 2 mps 759 mmHg 90%
    03:00 -7°C° 0 mm 1 mps 760 mmHg 89%
    04:00 -7°C° 0 mm 1 mps 760 mmHg 89%
    05:00 -7°C° 0 mm 1 mps 760 mmHg 88%
    06:00 -7°C° 0 mm 1 mps 760 mmHg 86%
    07:00 -7°C° 0 mm 1 mps 761 mmHg 84%
    08:00 -7°C° 0 mm 1 mps 761 mmHg 83%
    09:00 -6°C° 0 mm 1 mps 761 mmHg 77%
    10:00 -4°C° 0 mm 1 mps 761 mmHg 71%
    11:00 -3°C° 0 mm 1 mps 761 mmHg 66%
    12:00 -4°C° 0 mm 2 mps 761 mmHg 64%
    13:00 -4°C° 0 mm 2 mps 761 mmHg 62%
    14:00 -3°C° 0 mm 2 mps 760 mmHg 60%
    15:00 -4°C° 0 mm 2 mps 760 mmHg 63%
    16:00 -4°C° 0 mm 2 mps 759 mmHg 65%
    17:00 -4°C° 0 mm 2 mps 759 mmHg 68%
    18:00 -4°C° 0 mm 2 mps 758 mmHg 72%
    19:00 -6°C° 0 mm 3 mps 758 mmHg 75%
    20:00 -6°C° 0 mm 3 mps 757 mmHg 78%
    21:00 -6°C° 0 mm 3 mps 757 mmHg 81%
    22:00 -5°C° 0 mm 3 mps 756 mmHg 83%
    23:00 -5°C° 0 mm 3 mps 755 mmHg 85%
    Show more